OK2IGL-6 Weather Reports


time (UTC)temp
F
wind
direction
speed
knots
gust
knots
rain 1hr
in
rain 24hr
in
rain mn
in
humidity
%
barometer
mb
20260905183010 68 0 0.0 0.0 0.00 0.00 0.00 59 1014.0
20260905182300 69 0 0.0 0.0 0.00 0.00 0.00 58 1013.0
20260905181310 69 0 0.0 0.0 0.00 0.00 0.00 57 1012.0
20260905180600 70 0 0.0 0.0 0.00 0.00 0.00 57 1012.0
20260905175851 70 0 0.0 0.0 0.00 0.00 0.00 56 1013.0
20260905175141 70 0 0.0 0.0 0.00 0.00 0.00 56 1014.0
20260905174432 71 0 0.0 0.0 0.00 0.00 0.00 54 1015.0
20260905173723 71 0 0.0 0.0 0.00 0.00 0.00 54 1013.0
20260905173013 72 0 0.0 0.0 0.00 0.00 0.00 53 1015.0
20260905172305 72 0 0.0 0.0 0.00 0.00 0.00 52 1012.0
20260905171554 72 0 0.0 0.0 0.00 0.00 0.00 52 1014.0
20260905170845 72 0 0.0 0.0 0.00 0.00 0.00 51 1013.0
20260905170135 73 0 0.0 0.0 0.00 0.00 0.00 50 1015.0
20260905165426 73 0 0.0 0.0 0.00 0.00 0.00 51 1014.0
20260905164716 74 0 0.0 0.0 0.00 0.00 0.00 52 1015.0
20260905164007 74 0 0.0 0.0 0.00 0.00 0.00 51 1015.0
20260905163257 74 0 0.0 0.0 0.00 0.00 0.00 51 1015.0
20260905162307 74 0 0.0 0.0 0.00 0.00 0.00 50 1013.0
20260905161557 75 0 0.0 0.0 0.00 0.00 0.00 49 1015.0
20260905160848 75 0 0.0 0.0 0.00 0.00 0.00 49 1014.0
20260905160138 76 0 0.0 0.0 0.00 0.00 0.00 47 1012.0
20260905155429 76 0 0.0 0.0 0.00 0.00 0.00 47 1013.0
20260905154720 76 0 0.0 0.0 0.00 0.00 0.00 46 1010.0
20260905154010 76 0 0.0 0.0 0.00 0.00 0.00 46 1011.0
20260905153301 76 0 0.0 0.0 0.00 0.00 0.00 46 1011.0
20260905152551 76 0 0.0 0.0 0.00 0.00 0.00 46 1010.0
20260905151842 77 0 0.0 0.0 0.00 0.00 0.00 46 1011.0
20260905151132 77 0 0.0 0.0 0.00 0.00 0.00 46 1010.0
20260905150423 77 0 0.0 0.0 0.00 0.00 0.00 45 1010.0
20260905145713 78 0 0.0 0.0 0.00 0.00 0.00 44 1010.0
20260905145004 78 0 0.0 0.0 0.00 0.00 0.00 46 1010.0
20260905144254 78 0 0.0 0.0 0.00 0.00 0.00 46 1012.0
20260905143304 78 0 0.0 0.0 0.00 0.00 0.00 46 1010.0
20260905142555 78 0 0.0 0.0 0.00 0.00 0.00 46 1014.0
20260905141845 78 0 0.0 0.0 0.00 0.00 0.00 46 1014.0
20260905141136 78 0 0.0 0.0 0.00 0.00 0.00 47 1014.0
20260905140426 78 0 0.0 0.0 0.00 0.00 0.00 45 1014.0
20260905135717 78 0 0.0 0.0 0.00 0.00 0.00 46 1014.0
20260905135007 78 0 0.0 0.0 0.00 0.00 0.00 47 1014.0
20260905134258 78 0 0.0 0.0 0.00 0.00 0.00 48 1015.0
20260905133548 78 0 0.0 0.0 0.00 0.00 0.00 46 1015.0
20260905132839 78 0 0.0 0.0 0.00 0.00 0.00 47 1015.0
20260905132129 78 0 0.0 0.0 0.00 0.00 0.00 47 1015.0
20260905131420 78 0 0.0 0.0 0.00 0.00 0.00 47 1015.0
20260905130711 78 0 0.0 0.0 0.00 0.00 0.00 48 1015.0
20260905130001 78 0 0.0 0.0 0.00 0.00 0.00 46 1015.0
20260905125252 78 0 0.0 0.0 0.00 0.00 0.00 48 1015.0
20260905124301 78 0 0.0 0.0 0.00 0.00 0.00 48 1015.0
20260905123552 78 0 0.0 0.0 0.00 0.00 0.00 49 1015.0
20260905122842 78 0 0.0 0.0 0.00 0.00 0.00 48 1015.0
20260905122133 78 0 0.0 0.0 0.00 0.00 0.00 50 1015.0
20260905121423 78 0 0.0 0.0 0.00 0.00 0.00 50 1015.0
20260905120714 78 0 0.0 0.0 0.00 0.00 0.00 50 1015.0
20260905120004 78 0 0.0 0.0 0.00 0.00 0.00 50 1015.0
20260905115255 78 0 0.0 0.0 0.00 0.00 0.00 51 1016.0
20260905114545 78 0 0.0 0.0 0.00 0.00 0.00 51 1016.0
20260905113836 78 0 0.0 0.0 0.00 0.00 0.00 53 1015.0
20260905113126 77 0 0.0 0.0 0.00 0.00 0.00 56 1016.0
20260905112417 78 0 0.0 0.0 0.00 0.00 0.00 53 1015.0
20260905111708 78 0 0.0 0.0 0.00 0.00 0.00 56 1015.0
20260905110958 77 0 0.0 0.0 0.00 0.00 0.00 58 1016.0
20260905110249 77 0 0.0 0.0 0.00 0.00 0.00 59 1016.0
20260905105258 76 0 0.0 0.0 0.00 0.00 0.00 60 1015.0
20260905104549 76 0 0.0 0.0 0.00 0.00 0.00 62 1016.0
20260905103839 76 0 0.0 0.0 0.00 0.00 0.00 63 1016.0
20260905103130 74 0 0.0 0.0 0.00 0.00 0.00 65 1016.0
20260905102420 74 0 0.0 0.0 0.00 0.00 0.00 65 1017.0
20260905101711 74 0 0.0 0.0 0.00 0.00 0.00 65 1017.0
20260905101001 74 0 0.0 0.0 0.00 0.00 0.00 65 1016.0
20260905100252 74 0 0.0 0.0 0.00 0.00 0.00 66 1016.0
20260905095542 74 0 0.0 0.0 0.00 0.00 0.00 66 1017.0
20260905094833 73 0 0.0 0.0 0.00 0.00 0.00 67 1016.0
20260905094124 72 0 0.0 0.0 0.00 0.00 0.00 67 1016.0
20260905093414 72 0 0.0 0.0 0.00 0.00 0.00 69 1016.0
20260905092705 72 0 0.0 0.0 0.00 0.00 0.00 72 1017.0
20260905091955 71 0 0.0 0.0 0.00 0.00 0.00 72 1016.0
20260905091246 70 0 0.0 0.0 0.00 0.00 0.00 70 1017.0
20260905090255 70 0 0.0 0.0 0.00 0.00 0.00 74 1017.0
20260905085546 68 0 0.0 0.0 0.00 0.00 0.00 75 1017.0
20260905084836 68 0 0.0 0.0 0.00 0.00 0.00 76 1017.0
20260905084127 67 0 0.0 0.0 0.00 0.00 0.00 78 1017.0
20260905083417 66 0 0.0 0.0 0.00 0.00 0.00 77 1017.0
20260905082708 66 0 0.0 0.0 0.00 0.00 0.00 80 1015.0
20260905081958 66 0 0.0 0.0 0.00 0.00 0.00 81 1017.0
20260905081249 65 0 0.0 0.0 0.00 0.00 0.00 81 1016.0
20260905080540 65 0 0.0 0.0 0.00 0.00 0.00 80 1016.0
20260905075830 64 0 0.0 0.0 0.00 0.00 0.00 82 1015.0
20260905075121 64 0 0.0 0.0 0.00 0.00 0.00 83 1016.0
20260905074411 64 0 0.0 0.0 0.00 0.00 0.00 85 1016.0
20260905073702 64 0 0.0 0.0 0.00 0.00 0.00 84 1015.0
20260905072952 64 0 0.0 0.0 0.00 0.00 0.00 84 1015.0
20260905072243 64 0 0.0 0.0 0.00 0.00 0.00 84 1015.0
20260905071252 64 0 0.0 0.0 0.00 0.00 0.00 84 1015.0
20260905070543 64 0 0.0 0.0 0.00 0.00 0.00 84 1014.0
20260905065833 64 0 0.0 0.0 0.00 0.00 0.00 85 1014.0
20260905065124 64 0 0.0 0.0 0.00 0.00 0.00 85 1014.0
20260905064415 64 0 0.0 0.0 0.00 0.00 0.00 83 1014.0
20260905063705 64 0 0.0 0.0 0.00 0.00 0.00 84 1014.0
20260905062955 64 0 0.0 0.0 0.00 0.00 0.00 85 1015.0
20260905062246 64 0 0.0 0.0 0.00 0.00 0.00 88 1015.0
20260905061537 64 0 0.0 0.0 0.00 0.00 0.00 88 1015.0
20260905060827 64 0 0.0 0.0 0.00 0.00 0.00 89 1015.0
20260905060118 64 0 0.0 0.0 0.00 0.00 0.00 88 1014.0
20260905055408 64 0 0.0 0.0 0.00 0.00 0.00 89 1015.0
20260905054659 64 0 0.0 0.0 0.00 0.00 0.00 89 1014.0
20260905053949 64 0 0.0 0.0 0.00 0.00 0.00 89 1015.0
20260905053240 64 0 0.0 0.0 0.00 0.00 0.00 89 1014.0
20260905052249 64 0 0.0 0.0 0.00 0.00 0.00 89 1014.0
20260905051540 64 0 0.0 0.0 0.00 0.00 0.00 88 1014.0
20260905050830 64 0 0.0 0.0 0.00 0.00 0.00 88 1014.0
20260905050121 65 0 0.0 0.0 0.00 0.00 0.00 88 1014.0
20260905045411 65 0 0.0 0.0 0.00 0.00 0.00 86 1014.0
20260905044702 65 0 0.0 0.0 0.00 0.00 0.00 87 1014.0
20260905043953 65 0 0.0 0.0 0.00 0.00 0.00 86 1014.0
20260905043243 66 0 0.0 0.0 0.00 0.00 0.00 84 1014.0
20260905042534 66 0 0.0 0.0 0.00 0.00 0.00 85 1014.0
20260905041824 66 0 0.0 0.0 0.00 0.00 0.00 82 1013.0
20260905041115 66 0 0.0 0.0 0.00 0.00 0.00 81 1013.0
20260905040405 66 0 0.0 0.0 0.00 0.00 0.00 82 1013.0
20260905035656 66 0 0.0 0.0 0.00 0.00 0.00 81 1013.0
20260905034946 67 0 0.0 0.0 0.00 0.00 0.00 81 1013.0
20260905034237 68 0 0.0 0.0 0.00 0.00 0.00 79 1013.0
20260905033246 68 0 0.0 0.0 0.00 0.00 0.00 70 1013.0
20260905032537 68 0 0.0 0.0 0.00 0.00 0.00 66 1012.0
20260905031827 68 0 0.0 0.0 0.00 0.00 0.00 66 1012.0
20260905031118 68 0 0.0 0.0 0.00 0.00 0.00 66 1012.0
20260905030409 69 0 0.0 0.0 0.00 0.00 0.00 66 1012.0
20260905025659 69 0 0.0 0.0 0.00 0.00 0.00 65 1012.0
20260905024950 69 0 0.0 0.0 0.00 0.00 0.00 65 1011.0
20260905024240 70 0 0.0 0.0 0.00 0.00 0.00 64 1011.0
20260905023531 70 0 0.0 0.0 0.00 0.00 0.00 64 1012.0
20260905022821 70 0 0.0 0.0 0.00 0.00 0.00 63 1012.0
20260905022112 70 0 0.0 0.0 0.00 0.00 0.00 64 1012.0
20260905021402 70 0 0.0 0.0 0.00 0.00 0.00 64 1012.0
20260905020653 70 0 0.0 0.0 0.00 0.00 0.00 64 1011.0
20260905015943 70 0 0.0 0.0 0.00 0.00 0.00 65 1011.0
20260905015234 71 0 0.0 0.0 0.00 0.00 0.00 65 1011.0
20260905014244 72 0 0.0 0.0 0.00 0.00 0.00 65 1011.0
20260905013534 72 0 0.0 0.0 0.00 0.00 0.00 67 1011.0
20260905012825 72 0 0.0 0.0 0.00 0.00 0.00 67 1011.0
20260905012115 72 0 0.0 0.0 0.00 0.00 0.00 66 1011.0
20260905011406 73 0 0.0 0.0 0.00 0.00 0.00 64 1010.0
20260905010656 73 0 0.0 0.0 0.00 0.00 0.00 62 1009.0
20260905005947 73 0 0.0 0.0 0.00 0.00 0.00 62 1009.0
20260905005237 73 0 0.0 0.0 0.00 0.00 0.00 62 1009.0
20260905004528 73 0 0.0 0.0 0.00 0.00 0.00 62 1009.0
20260905003818 73 0 0.0 0.0 0.00 0.00 0.00 62 1009.0
20260905003109 73 0 0.0 0.0 0.00 0.00 0.00 62 1009.0
20260905002359 73 0 0.0 0.0 0.00 0.00 0.00 62 1008.0
20260905001650 73 0 0.0 0.0 0.00 0.00 0.00 62 1008.0
20260905000941 73 0 0.0 0.0 0.00 0.00 0.00 62 1008.0
20260905000233 73 0 0.0 0.0 0.00 0.00 0.00 62 1008.0
20260904235241 73 0 0.0 0.0 0.00 0.00 0.00 61 1008.0
20260904234531 73 0 0.0 0.0 0.00 0.00 0.00 62 1008.0
20260904233822 74 0 0.0 0.0 0.00 0.00 0.00 62 1008.0
20260904233112 74 0 0.0 0.0 0.00 0.00 0.00 61 1008.0
20260904232403 74 0 0.0 0.0 0.00 0.00 0.00 61 1008.0
20260904231653 74 0 0.0 0.0 0.00 0.00 0.00 62 1008.0
20260904230944 73 0 0.0 0.0 0.00 0.00 0.00 62 1008.0
20260904230234 74 0 0.0 0.0 0.00 0.00 0.00 64 1008.0
20260904225525 74 0 0.0 0.0 0.00 0.00 0.00 62 1008.0
20260904224816 74 0 0.0 0.0 0.00 0.00 0.00 62 1008.0
20260904224106 74 0 0.0 0.0 0.00 0.00 0.00 61 1008.0
20260904223357 74 0 0.0 0.0 0.00 0.00 0.00 61 1008.0
20260904222647 74 0 0.0 0.0 0.00 0.00 0.00 61 1008.0
20260904221938 75 0 0.0 0.0 0.00 0.00 0.00 60 1008.0
20260904221228 75 0 0.0 0.0 0.00 0.00 0.00 59 1008.0
20260904220238 76 0 0.0 0.0 0.00 0.00 0.00 58 1008.0
20260904215528 76 0 0.0 0.0 0.00 0.00 0.00 57 1008.0
20260904214819 76 0 0.0 0.0 0.00 0.00 0.00 57 1008.0
20260904214109 76 0 0.0 0.0 0.00 0.00 0.00 57 1008.0
20260904213400 76 0 0.0 0.0 0.00 0.00 0.00 56 1008.0
20260904212650 76 0 0.0 0.0 0.00 0.00 0.00 56 1008.0
20260904211941 76 0 0.0 0.0 0.00 0.00 0.00 56 1008.0
20260904211232 76 0 0.0 0.0 0.00 0.00 0.00 56 1008.0
20260904210522 76 0 0.0 0.0 0.00 0.00 0.00 56 1008.0
20260904205813 76 0 0.0 0.0 0.00 0.00 0.00 57 1008.0
20260904205103 76 0 0.0 0.0 0.00 0.00 0.00 57 1008.0
20260904204354 75 0 0.0 0.0 0.00 0.00 0.00 58 1008.0
20260904203644 75 0 0.0 0.0 0.00 0.00 0.00 59 1008.0
20260904202935 75 0 0.0 0.0 0.00 0.00 0.00 59 1008.0
20260904202225 75 0 0.0 0.0 0.00 0.00 0.00 58 1008.0
20260904201235 75 0 0.0 0.0 0.00 0.00 0.00 59 1008.0
20260904200525 76 0 0.0 0.0 0.00 0.00 0.00 58 1008.0
20260904195816 76 0 0.0 0.0 0.00 0.00 0.00 58 1008.0
20260904193645 76 0 0.0 0.0 0.00 0.00 0.00 58 1008.0
20260904192935 76 0 0.0 0.0 0.00 0.00 0.00 58 1009.0
20260904192226 76 0 0.0 0.0 0.00 0.00 0.00 58 1008.0
20260904191517 76 0 0.0 0.0 0.00 0.00 0.00 58 1009.0
20260904190807 77 0 0.0 0.0 0.00 0.00 0.00 57 1008.0
20260904190058 77 0 0.0 0.0 0.00 0.00 0.00 57 1008.0
20260904185348 78 0 0.0 0.0 0.00 0.00 0.00 57 1008.0
20260904184639 78 0 0.0 0.0 0.00 0.00 0.00 55 1009.0
20260904183929 78 0 0.0 0.0 0.00 0.00 0.00 55 1009.0